WB7UVH Weather Reports


Display with metric or nautical units.
time (UTC)temp
F
wind
direction
speed
MPH
gust
MPH
rain 1hr
in
rain 24hr
in
rain mn
in
humidity
%
barometer
mb
20260904034505 54 281 0.0 0.0 0.00 0.29 0.27 95 1015.1
20260904033004 54 281 0.0 0.0 0.00 0.29 0.27 95 1014.9
20260904031504 54 281 0.0 0.0 0.00 0.29 0.27 95 1014.8
20260904030005 55 281 0.0 0.0 0.00 0.29 0.27 95 1014.7
20260904024505 56 281 0.0 0.0 0.00 0.29 0.27 94 1014.7
20260904023005 56 281 0.0 0.0 0.00 0.29 0.27 94 1014.7
20260904021505 57 281 0.0 0.0 0.00 0.29 0.27 94 1014.7
20260904020004 57 281 0.0 0.0 0.00 0.29 0.27 94 1014.8
20260904014505 57 281 0.0 0.0 0.00 0.29 0.27 95 1014.8
20260904013004 57 281 0.0 0.0 0.00 0.30 0.27 94 1014.8
20260904010005 58 281 0.0 0.0 0.05 0.32 0.27 94 1015.0
20260904003005 58 293 0.0 0.0 0.05 0.41 0.27 92 1014.9
20260904001505 60 293 0.0 12.0 0.05 0.51 0.27 90 1015.0
20260904000005 60 252 0.0 0.0 0.00 0.48 0.22 87 1014.8
20260903233005 61 252 0.0 0.0 0.00 0.49 0.22 89 1014.4
20260903231504 61 252 0.0 0.0 0.00 0.50 0.22 87 1014.5
20260903230005 60 252 0.0 0.0 0.01 0.51 0.22 84 1014.7
20260903223005 59 252 0.0 0.0 0.01 0.52 0.22 92 1015.0
20260903221505 60 252 0.0 0.0 0.01 0.52 0.22 90 1015.0
20260903214505 61 252 0.0 0.0 0.00 0.52 0.21 87 1015.1
20260903213005 61 252 0.0 0.0 0.00 0.53 0.21 84 1015.1
20260903211504 60 252 0.0 0.0 0.00 0.54 0.21 92 1015.1
20260903210005 59 246 0.0 0.0 0.01 0.57 0.21 89 1015.2
20260903204504 59 246 0.0 0.0 0.03 0.62 0.21 93 1015.1
20260903203004 58 245 0.0 0.0 0.07 0.66 0.21 91 1015.3
20260903201505 59 244 0.0 0.0 0.07 0.69 0.21 90 1015.3
20260903194505 61 73 0.0 0.0 0.04 0.69 0.18 89 1015.4
20260903191504 61 55 0.0 0.0 0.00 0.69 0.14 86 1014.9
20260903184504 61 131 0.0 1.0 0.00 0.73 0.14 85 1015.0
20260903183005 61 80 0.0 0.0 0.00 0.79 0.14 87 1015.2
20260903181505 61 142 0.0 3.0 0.00 0.82 0.14 87 1015.1
20260903180004 59 350 0.0 0.0 0.00 0.83 0.14 90 1015.2
20260903173005 56 46 0.0 1.0 0.01 0.83 0.14 97 1015.4
20260903171505 55 174 0.0 3.0 0.02 0.84 0.14 96 1015.5
20260903170005 55 69 0.0 1.0 0.03 0.84 0.14 97 1015.4
20260903163005 55 50 0.0 0.0 0.05 0.83 0.13 96 1015.7
20260903161505 55 51 0.0 0.0 0.04 0.82 0.12 97 1015.7
20260903160005 55 355 0.0 0.0 0.04 0.81 0.11 97 1015.7
20260903154504 55 355 0.0 0.0 0.03 0.80 0.10 97 1015.7
20260903153005 55 355 0.0 0.0 0.02 0.78 0.08 96 1015.6
20260903151505 54 355 0.0 0.0 0.02 0.78 0.08 97 1015.5
20260903150004 54 355 0.0 0.0 0.01 0.77 0.07 96 1015.3
20260903143005 54 355 0.0 0.0 0.00 0.76 0.06 96 1015.2
20260903141505 54 355 0.0 0.0 0.00 0.76 0.06 96 1014.9
20260903140004 54 355 0.0 0.0 0.00 0.76 0.06 96 1014.8
20260903134504 54 355 0.0 0.0 0.00 0.76 0.06 96 1014.8
20260903131504 54 355 0.0 0.0 0.00 0.76 0.06 96 1014.8
20260903124505 54 355 0.0 0.0 0.00 0.76 0.06 96 1014.8
20260903121504 54 355 0.0 0.0 0.00 0.76 0.06 96 1014.9
20260903120005 54 355 0.0 0.0 0.00 0.76 0.06 95 1014.6
20260903114504 54 355 0.0 0.0 0.00 0.76 0.06 95 1014.7
20260903113004 54 355 0.0 0.0 0.00 0.76 0.06 95 1014.7
20260903111504 54 352 0.0 1.0 0.00 0.76 0.06 95 1014.7
20260903110004 54 348 0.0 0.0 0.00 0.76 0.06 94 1014.6
20260903103004 54 13 0.0 1.0 0.02 0.76 0.06 95 1014.6
20260903101505 54 336 0.0 0.0 0.02 0.76 0.06 95 1014.5
20260903100005 55 320 0.0 0.0 0.02 0.76 0.06 95 1014.6
20260903093004 55 316 0.0 0.0 0.01 0.74 0.04 95 1014.6
20260903091504 55 317 0.0 0.0 0.02 0.74 0.04 95 1014.5
20260903090004 55 325 0.0 0.0 0.02 0.74 0.04 94 1014.5
20260903084504 55 327 0.0 0.0 0.02 0.73 0.03 94 1014.7
20260903080005 55 0 0.0 0.0 0.02 0.72 0.02 94 1014.8
20260903074504 55 288 0.0 0.0 0.01 0.71 0.01 95 1014.9
20260903073004 55 288 0.0 0.0 0.01 0.71 0.01 95 1015.1
20260903071504 55 269 1.0 9.0 0.00 0.70 0.00 95 1014.8
20260903070005 55 241 0.0 0.0 0.00 0.70 0.00 96 1014.6
20260903064504 56 274 0.0 0.0 0.00 0.70 0.70 96 1014.6
20260903063004 55 272 0.0 0.0 0.00 0.70 0.70 95 1014.6
20260903061505 55 311 0.0 0.0 0.00 0.70 0.70 96 1014.5
20260903060004 55 311 0.0 1.0 0.00 0.70 0.70 95 1014.7
20260903054504 56 302 0.0 0.0 0.00 0.70 0.70 95 1014.6
20260903053004 56 242 0.0 0.0 0.00 0.70 0.70 95 1014.6
20260903051505 56 245 0.0 0.0 0.01 0.70 0.70 95 1014.5
20260903050004 56 257 0.0 0.0 0.01 0.70 0.70 96 1014.3
20260903044504 56 257 0.0 0.0 0.02 0.70 0.70 96 1014.2
20260903043005 56 338 0.0 5.0 0.02 0.70 0.70 96 1014.1